SCP
2 2 2 1 2 2 2 1 1 1 1 1 1 1 1 1 1 1 1 1 1 1 1 1 1 0 0 0 0 0 0 0 0 0 0 0 0 0 0 0 0 0 0
3 2 2 2 2 2 2 2 2 2 2 2 2 2 1 1 1 1 1 1 2 1 1 1 1 1 0 0 0 0 0 0 0 0 0 0 0 0 0 0 0 0 0
4 3 3 2 2 2 2 2 2 2 2 3 3 3 2 2 2 2 1 1 1 1 1 1 1 1 1 1 0 0 0 0 0 0 0 0 0 0 0 0 0 0 0
4 4 4 3 3 3 3 3 3 3 3 3 3 3 3 2 2 2 2 1 1 1 1 1 1 1 1 1 1 0 0 0 0 0 0 0 0 0 0 0 0 0 0
5 5 5 4 3 3 3 3 3 3 3 3 3 3 3 2 2 2 1 1 1 1 1 1 1 1 1 1 1 1 1 0 0 0 0 0 0 0 0 0 0 0 0
4 5 4 4 4 4 4 3 2 2 2 2 2 2 2 2 2 1 1 1 1 1 1 1 1 1 1 1 1 1 1 1 0 0 0 0 0 0 0 0 0 0 0
4 4 4 4 4 4 4 3 2 2 2 2 2 2 2 2 1 1 1 1 1 1 2 2 2 2 1 1 1 1 1 1 1 1 1 1 0 0 0 0 0 0 0
4 4 4 4 4 4 3 3 2 2 2 2 2 2 1 1 1 1 1 1 1 1 2 2 2 2 2 1 1 1 1 1 1 1 1 1 1 1 1 1 0 0 0
4 4 4 4 4 3 3 3 3 3 2 2 2 2 2 2 1 1 1 1 1 2 2 2 2 2 2 2 1 1 1 1 1 1 1 1 1 2 2 1 1 1 1
5 5 5 4 4 4 4 4 4 4 3 2 2 2 2 2 2 1 1 1 2 2 2 2 2 2 2 2 1 1 1 1 1 2 2 2 2 2 2 2 2 2 1
5 5 5 4 4 5 5 4 4 4 3 3 2 2 2 2 2 2 2 2 2 2 2 1 1 1 1 1 1 1 1 1 2 2 2 2 2 2 3 3 3 2 2
5 5 5 4 4 5 4 4 4 4 4 3 3 2 2 2 2 2 2 1 1 1 1 1 1 1 1 1 1 1 1 1 1 1 1 2 2 2 2 3 3 3 3
6 5 5 5 5 4 4 4 4 4 4 3 3 2 2 2 2 2 2 1 1 1 1 1 1 1 1 1 1 1 1 1 1 1 1 1 1 1 2 2 2 2 2
6 6 6 6 5 4 4 4 4 3 3 3 2 2 2 2 2 2 2 1 1 1 1 1 1 1 1 1 1 1 1 1 1 1 1 1 1 1 2 2 2 2 2
6 6 7 6 5 4 4 4 3 3 3 2 2 2 2 2 2 2 2 2 1 1 2 2 2 2 2 2 2 2 2 2 2 2 1 1 1 1 1 2 2 2 2
5 5 6 5 5 4 4 3 3 3 3 2 2 2 2 2 2 2 2 2 2 2 2 2 2 2 2 2 2 2 2 2 2 2 2 2 2 1 1 1 1 1 1
5 5 5 4 4 4 4 4 4 3 3 3 2 2 2 2 2 2 2 2 2 2 2 3 3 2 2 2 1 1 2 2 3 3 2 2 2 2 2 1 1 1 1
5 5 4 5 5 5 6 5 4 3 3 3 2 2 2 2 2 2 2 3 3 3 3 3 3 3 2 2 1 1 1 2 2 3 3 3 2 2 2 1 1 1 1
5 5 5 5 6 6 7 6 5 4 3 2 2 2 2 2 2 2 3 3 3 3 3 3 3 2 2 2 1 1 1 2 2 2 2 2 2 2 1 1 1 1 1
4 4 4 5 5 5 6 6 5 4 3 2 2 2 2 2 2 2 3 3 3 3 3 3 2 2 2 1 1 1 1 2 2 2 2 2 2 1 1 1 1 1 1
3 3 3 3 3 4 5 6 5 4 3 2 2 2 2 2 2 2 3 3 3 3 3 2 2 2 2 2 1 0 1 1 2 2 2 1 1 1 0 0 1 1 1
3 3 3 2 3 3 4 5 4 4 3 2 2 2 2 2 2 2 3 3 3 3 3 2 2 2 2 2 1 0 0 1 2 2 2 1 1 0 0 0 0 0 0
2 2 2 2 2 3 4 4 4 3 3 3 2 2 2 2 2 2 2 3 3 3 3 3 3 3 3 2 2 1 0 0 1 1 1 1 0 0 0 0 0 0 0
2 2 2 2 2 2 3 4 3 3 3 2 2 2 2 2 2 1 1 2 2 3 4 4 4 3 3 3 2 2 2 1 1 1 1 1 0 0 0 0 0 0 0
2 2 2 2 2 2 3 3 3 3 2 2 2 1 1 1 1 1 1 1 1 2 3 3 3 3 3 2 2 2 2 2 2 2 1 1 1 0 0 0 0 0 0
2 1 2 2 3 3 3 3 3 3 2 1 1 1 1 1 1 1 1 0 0 1 1 2 2 2 2 2 1 2 2 2 2 2 2 1 1 1 1 0 1 1 1
Wind_Speed
11 9 10 11 10 10 10 10 9 8 7 5 5 4 4 3 3 3 4 5 5 5 4 3 3 3 3 3 3 2 2 1 1 2 1 1 1 2 3 3 3 4 5
9 11 11 11 12 13 12 11 10 10 9 7 5 3 3 3 3 3 3 5 5 5 5 5 4 4 3 3 3 3 2 1 2 2 2 1 2 2 2 3 4 5 4
14 13 14 14 14 14 14 13 12 10 9 8 4 3 3 2 2 2 3 4 5 5 5 5 5 4 4 4 4 4 4 3 1 1 3 2 3 2 2 3 4 4 4
13 13 14 14 15 14 12 11 11 10 9 9 8 7 6 5 5 4 4 4 5 5 6 5 5 5 4 4 4 4 3 4 3 1 1 2 3 2 2 2 2 4 5
13 14 16 15 13 12 11 10 10 9 9 9 10 8 5 4 3 3 4 4 4 5 5 5 5 5 4 5 5 4 4 3 4 3 2 2 1 2 2 2 2 2 3
12 12 11 10 10 10 10 9 10 9 9 10 9 9 8 7 5 5 5 4 3 3 5 5 5 5 4 5 5 5 5 4 4 3 3 3 3 3 3 3 3 3 3
11 11 13 13 13 13 12 11 11 10 10 10 9 9 9 9 8 7 6 5 4 4 5 5 5 4 5 5 5 5 5 5 5 5 4 4 3 3 3 3 2 2 2
11 13 14 14 13 14 13 13 12 11 10 10 9 8 8 6 6 6 6 6 5 5 5 6 6 6 6 6 5 4 5 5 5 6 5 4 4 4 4 4 3 2 2
11 11 12 12 12 13 13 13 12 10 10 10 8 7 8 7 6 6 5 5 5 5 5 6 6 6 6 6 5 4 5 5 5 5 6 4 4 4 4 4 4 4 3
8 9 10 11 10 10 10 10 10 10 9 8 8 8 7 7 6 6 7 6 6 5 5 6 6 5 5 5 5 4 5 5 5 4 5 5 4 4 4 4 4 4 4
9 9 8 8 8 8 10 10 10 9 9 9 9 7 7 7 6 6 7 6 5 6 6 6 6 6 5 5 5 5 5 6 6 5 6 6 5 4 4 4 4 5 4
6 7 8 8 8 9 9 9 9 9 9 9 8 7 6 6 7 7 6 6 6 6 6 6 6 6 6 6 6 7 7 7 7 7 6 7 5 6 5 5 5 5 5
6 7 8 8 8 8 9 9 9 9 8 8 8 7 6 7 7 7 6 6 6 5 5 5 6 6 6 6 6 7 7 7 7 7 7 7 6 7 5 6 6 5 5
6 7 7 8 8 7 7 8 8 7 7 7 7 7 7 7 6 6 5 6 6 6 6 5 6 6 5 6 6 6 6 6 7 7 7 7 8 8 7 6 6 5 5
4 6 8 8 7 6 6 7 6 7 7 7 7 7 6 5 5 5 5 5 5 6 5 5 5 5 5 5 6 6 6 6 6 6 7 7 8 8 7 6 5 5 5
5 6 7 7 7 8 8 7 7 7 7 7 7 6 5 5 5 5 4 4 4 4 4 4 4 4 4 5 7 6 5 5 6 6 6 6 7 8 9 9 8 7 6
3 4 5 6 7 7 8 8 6 6 6 6 5 5 5 5 4 4 4 4 4 4 4 4 4 4 4 5 6 6 4 4 4 5 4 4 4 5 5 6 6 6 7
3 3 4 4 4 5 5 6 6 6 6 5 5 4 5 5 4 4 4 3 3 3 3 3 3 2 2 3 4 4 3 3 3 3 3 4 3 3 3 3 3 3 3
2 2 3 4 5 6 6 7 6 6 5 5 5 5 5 5 5 4 3 3 3 2 2 1 1 1 1 1 2 2 2 1 2 2 2 3 3 3 2 2 2 2 2
3 4 4 5 5 5 6 7 6 6 5 4 4 4 4 5 5 4 3 2 2 2 2 2 1 1 1 2 0 1 1 1 1 0 1 1 1 1 2 2 2 2 1
5 6 6 5 4 5 6 7 6 5 4 4 4 4 4 4 4 4 3 3 3 3 3 2 1 2 2 2 2 2 1 1 1 1 1 2 2 2 1 2 2 1 1
6 6 7 6 5 5 6 7 5 4 5 5 5 4 4 3 3 4 3 3 4 4 3 2 2 2 2 3 3 3 3 2 2 1 1 2 3 4 3 2 3 3 3
5 5 7 7 6 5 5 6 4 5 6 6 6 5 5 4 4 4 4 3 3 3 2 2 1 1 2 3 4 4 3 3 2 2 4 4 4 4 4 4 4 3 3
5 5 6 7 6 5 5 5 5 5 6 7 6 5 5 5 5 4 3 3 3 2 2 2 2 2 2 2 2 3 3 3 3 2 4 6 6 5 5 5 4 3 3
4 5 5 6 5 5 5 5 4 5 7 7 6 6 5 6 6 6 5 4 4 2 2 2 2 2 2 2 3 3 3 2 2 3 3 4 4 4 4 4 4 3 3
5 6 5 5 5 6 5 4 4 5 7 6 5 5 4 5 5 6 7 11 8 10 9 7 5 4 5 6 7 7 7 6 6 5 4 4 3 3 3 3 3 3 3
Wind_Direction
198 185 186 184 180 179 181 183 184 178 169 167 171 171 186 194 198 201 195 190 187 180 179 186 177 172 175 181 163 142 128 114 116 97 48 355 291 242 236 230 229 232 230
185 187 184 185 187 188 188 186 188 183 180 183 177 167 164 180 190 193 192 192 189 185 191 188 182 176 172 172 171 153 139 141 149 139 118 351 330 290 242 224 226 233 227
195 191 190 191 190 193 192 192 192 186 182 173 154 136 117 112 151 190 199 200 194 195 193 191 183 177 177 188 190 177 164 168 180 162 148 161 231 287 297 247 233 228 225
197 194 194 193 196 196 191 189 185 181 177 171 171 171 176 184 193 186 192 198 199 196 195 191 185 183 184 190 197 190 179 164 177 183 180 173 167 176 294 303 259 239 233
197 196 197 195 192 187 185 185 179 180 176 178 180 179 183 187 175 169 182 198 204 204 198 190 186 190 194 197 197 187 187 182 180 180 171 168 168 170 185 269 293 278 247
197 196 193 182 180 178 179 178 179 184 181 182 183 184 184 177 170 179 188 199 203 209 203 194 194 195 197 202 203 198 193 196 192 190 182 176 177 190 190 223 251 264 271
192 188 185 183 182 180 180 180 185 189 186 185 187 189 187 183 187 188 194 194 200 210 211 201 198 199 204 209 202 198 202 199 198 199 204 204 205 179 177 193 227 252 278
194 191 190 187 184 182 182 183 187 191 188 191 192 189 187 190 196 194 193 198 205 211 205 203 205 202 203 208 199 205 208 204 207 211 206 209 215 201 193 190 188 230 273
196 192 188 185 182 182 185 186 186 190 191 193 190 190 192 194 197 196 197 201 205 206 202 206 209 208 205 203 196 209 214 207 213 216 213 215 218 212 213 205 196 196 235
190 185 184 182 180 179 178 178 183 190 189 187 194 198 196 198 196 193 200 203 204 204 198 206 208 209 208 203 202 212 215 211 219 216 216 222 222 217 211 209 209 206 211
189 182 180 174 168 166 172 179 181 183 185 190 198 199 196 197 194 199 204 200 198 200 203 203 203 207 211 207 207 216 216 220 226 224 222 230 219 220 218 210 209 211 206
171 162 158 154 161 170 176 180 183 188 191 190 190 196 192 187 194 204 204 196 199 203 204 199 202 211 214 211 212 221 222 223 228 228 228 235 227 225 223 215 218 217 210
153 149 148 159 168 176 180 180 181 186 184 181 184 189 190 192 198 203 200 197 200 204 203 199 206 215 217 216 220 224 226 226 229 228 227 232 226 231 228 222 225 224 218
163 158 159 172 176 176 179 180 181 178 175 176 184 192 197 198 200 197 195 197 198 201 203 204 208 216 220 222 225 227 231 234 237 235 233 233 227 230 229 228 228 225 221
166 169 174 176 169 170 176 176 176 174 172 175 187 198 194 189 189 190 194 195 197 202 202 203 212 218 221 228 227 229 233 235 240 242 240 238 234 229 224 226 224 220 221
187 182 179 170 170 177 176 174 177 176 168 176 189 188 181 181 183 187 189 190 194 197 198 204 212 220 232 236 228 228 235 238 240 247 250 248 240 236 229 227 223 217 221
194 181 179 178 177 177 173 174 172 163 163 171 178 177 174 178 183 181 182 190 191 189 199 204 208 226 242 237 233 232 232 238 242 245 250 258 256 240 236 232 228 227 230
179 173 162 158 157 150 145 143 141 153 161 164 169 172 174 178 171 166 173 182 180 184 196 202 207 225 255 245 236 226 222 237 251 254 254 259 265 256 228 221 231 237 244
138 136 138 135 132 137 139 136 141 145 151 160 167 172 171 167 160 166 172 169 162 174 189 173 171 209 280 282 259 222 200 209 254 270 278 267 265 273 202 196 218 244 271
93 101 108 107 119 130 132 134 141 142 153 160 159 152 151 155 158 160 153 143 141 143 123 108 114 124 332 358 18 159 175 191 223 311 343 342 280 295 187 194 193 213 256
91 90 94 94 101 118 127 130 133 143 147 138 128 120 126 139 140 134 131 127 125 118 114 109 78 65 36 28 47 85 117 142 123 53 355 1 39 51 93 144 140 168 150
87 87 88 81 76 92 116 122 125 124 121 122 118 114 112 114 113 115 117 119 124 121 121 104 73 53 41 41 50 73 82 101 105 91 39 34 49 58 62 85 81 85 87
87 82 92 88 74 75 98 111 104 107 115 112 109 106 99 91 94 103 108 107 112 119 116 108 94 55 45 42 45 66 77 82 93 81 70 53 52 66 67 62 65 75 82
84 89 95 95 85 77 82 91 99 108 112 108 103 101 98 88 78 74 75 87 95 112 112 111 105 80 56 43 39 48 60 70 81 76 66 62 57 60 57 52 54 62 71
76 84 91 97 95 89 85 85 97 109 107 103 102 99 94 92 82 72 56 65 59 63 101 104 106 99 72 31 47 69 61 63 90 88 70 60 57 57 53 53 52 55 60
73 76 80 91 94 91 86 84 95 109 112 107 100 94 94 92 92 92 75 59 67 62 64 69 84 74 77 71 69 65 57 56 75 83 69 60 56 56 56 54 49 47 46